Weather History for KVTA - January, 2013

Change the Weather History Date:

Friday, January 18, 2013

  Actual Average Record
Temperature  
Mean Temperature 26 °F -  
Max Temperature 35 °F 34 °F 46 °F (2015)
Min Temperature 19 °F 18 °F 34 °F (2015)
Degree Days  
Heating Degree Days 38    
Moisture  
Dew Point 16 °F    
Average Humidity 62    
Maximum Humidity 81    
Minimum Humidity 52    
Precipitation  
Precipitation 0.00 in - - ()
Sea Level Pressure  
Sea Level Pressure 30.42 in    
Wind  
Wind Speed 8 mph (SW)    
Max Wind Speed 14 mph    
Max Gust Speed 24 mph    
Visibility 10 miles    
Events      
Averages and records for this station are not official NWS values.
T = Trace of Precipitation, MM = Missing Value Source: NWS Daily Summary

Daily Weather History Graph

Daily Weather History Graph

Search for Another Location

Airport or City:

Trip Planner

Search our weather history database for the weather conditions in past years. The results will help you decide how hot, cold, wet, or windy it might be!

Date:

Astronomy

Jan. 18, 2013 Rise Set
Actual Time 7:48 AM EST 5:32 PM EST
Civil Twilight 7:18 AM EST 6:02 PM EST
Nautical Twilight 6:45 AM EST 6:35 PM EST
Astronomical Twilight 6:13 AM EST 7:07 PM EST
Moon 11:26 AM EST (1/18) 12:21 AM EST (1/18)
Length of Visible Light 10h 43m
Length of Day
9h 44m
Waxing Crescent, 47% of the Moon is Illuminated
Jan 18
Waxing Crescent
Jan 18
First Quarter
Jan 26
Full
Feb 3
Last Quarter
Feb 10
New

Hourly Weather History & Observations

Time (EST) Temp. Windchill Dew Point Humidity Pressure Visibility Wind Dir Wind Speed Gust Speed Precip Events Conditions
12:54 AM 25.0 °F 13.6 °F 12.9 °F 60% 30.37 in 10.0 mi NW 12.7 mph 24.2 mph N/A   Clear
1:54 AM 23.0 °F 12.4 °F 10.0 °F 58% 30.41 in 10.0 mi NNW 10.4 mph - N/A   Clear
2:54 AM 21.9 °F 15.7 °F 9.0 °F 58% 30.45 in 10.0 mi NW 4.6 mph - N/A   Clear
3:54 AM 19.9 °F 13.4 °F 10.0 °F 65% 30.47 in 10.0 mi WNW 4.6 mph - N/A   Clear
4:54 AM 19.9 °F - 12.9 °F 74% 30.47 in 10.0 mi Calm Calm - N/A   Clear
5:54 AM 19.9 °F - 12.9 °F 74% 30.47 in 10.0 mi Calm Calm - N/A   Clear
6:54 AM 19.0 °F - 14.0 °F 81% 30.50 in 10.0 mi Calm Calm - N/A   Clear
7:54 AM 19.0 °F - 12.0 °F 74% 30.50 in 10.0 mi Calm Calm - N/A   Clear
8:54 AM 21.9 °F 14.5 °F 15.1 °F 75% 30.52 in 10.0 mi SSW 5.8 mph - N/A   Clear
9:54 AM 26.1 °F 19.4 °F 17.1 °F 69% 30.54 in 10.0 mi WSW 5.8 mph - N/A   Clear
10:54 AM 28.0 °F 20.8 °F 16.0 °F 61% 30.53 in 10.0 mi West 6.9 mph - N/A   Clear
11:54 AM 30.0 °F 22.4 °F 16.0 °F 56% 30.50 in 10.0 mi SW 8.1 mph - N/A   Clear
12:54 PM 30.9 °F 22.8 °F 16.0 °F 54% 30.47 in 10.0 mi SW 9.2 mph - N/A   Clear
1:54 PM 33.1 °F 23.4 °F 18.0 °F 54% 30.44 in 10.0 mi South 13.8 mph 19.6 mph N/A   Clear
2:54 PM 33.1 °F 23.4 °F 18.0 °F 54% 30.42 in 10.0 mi SSW 13.8 mph 23.0 mph N/A   Clear
3:54 PM 34.0 °F 26.0 °F 19.0 °F 54% 30.40 in 10.0 mi SSW 10.4 mph - N/A   Clear
4:54 PM 34.0 °F 25.5 °F 18.0 °F 52% 30.38 in 10.0 mi South 11.5 mph 20.7 mph N/A   Clear
5:54 PM 33.1 °F 23.9 °F 19.9 °F 59% 30.38 in 10.0 mi South 12.7 mph - N/A   Clear
6:54 PM 32.0 °F 24.2 °F 19.9 °F 61% 30.36 in 10.0 mi South 9.2 mph - N/A   Clear
7:54 PM 32.0 °F 24.8 °F 19.9 °F 61% 30.35 in 10.0 mi South 8.1 mph - N/A   Clear
8:54 PM 32.0 °F 25.6 °F 19.9 °F 61% 30.32 in 10.0 mi South 6.9 mph - N/A   Clear
9:54 PM 32.0 °F 24.8 °F 21.0 °F 64% 30.29 in 10.0 mi South 8.1 mph - N/A   Clear
10:54 PM 34.0 °F 26.6 °F 21.0 °F 59% 30.26 in 10.0 mi SSW 9.2 mph 16.1 mph N/A   Clear
11:54 PM 35.1 °F 26.9 °F 21.0 °F 57% 30.23 in 10.0 mi SSW 11.5 mph - N/A   Clear